Piarco, Trinidad And Tobago

8:05 AM AST on April 24, 2017 (GMT -0400)
Piarco International

Weather History for TTPP - November, 2012

Change the Weather History Date:

Monday, November 5, 2012

  Actual Average Record
Temperature  
Mean Temperature 83 °F -  
Max Temperature 90 °F 86 °F 93 °F (2014)
Min Temperature 76 °F 73 °F 73 °F (1996)
Cooling Degree Days 18    
Growing Degree Days 33 (Base 50)    
Moisture  
Dew Point 76 °F    
Average Humidity 87    
Maximum Humidity 100    
Minimum Humidity 63    
Precipitation  
Precipitation 1.42 in 0.28 in - ()
Sea Level Pressure  
Sea Level Pressure 29.85 in    
Wind  
Wind Speed 6 mph ()    
Max Wind Speed 17 mph    
Max Gust Speed -    
Visibility 5.0 miles    
Events Rain , Hail , Thunderstorm    
Averages and records for this station are not official NWS values.
T = Trace of Precipitation, MM = Missing Value Source: Averaged Metar Reports

Daily Weather History Graph

Daily Weather History Graph

Search for Another Location

Airport or City:

Trip Planner

Search our weather history database for the weather conditions in past years. The results will help you decide how hot, cold, wet, or windy it might be!

Date:

Astronomy

Nov. 05, 2012 Rise Set
Actual Time 5:57 AM AST 5:40 PM AST
Civil Twilight 5:35 AM AST 6:02 PM AST
Nautical Twilight 5:10 AM AST 6:27 PM AST
Astronomical Twilight 4:45 AM AST 6:52 PM AST
Moon 11:11 PM AST (11/5) 11:11 AM AST (11/5)
Length of Visible Light 12h 26m
Length of Day
11h 42m
Waning Gibbous, 63% of the Moon is Illuminated
Nov 5
Waning Gibbous
Nov 6
Last Quarter
Nov 13
New
Nov 20
First Quarter
Nov 28
Full

Hourly Weather History & Observations

Time (AST) Temp. Heat Index Dew Point Humidity Pressure Visibility Wind Dir Wind Speed Gust Speed Precip Events Conditions
12:00 AM 78.8 °F - 75.2 °F 89% 29.86 in 6.2 mi ESE 9.2 mph - N/A   Mostly Cloudy
1:00 AM 78.8 °F - 75.2 °F 89% 29.83 in 6.2 mi East 9.2 mph - N/A   Mostly Cloudy
2:00 AM 79 °F - 76 °F 87% 29.83 in 10 mi Calm Calm - -   Scattered Clouds
2:00 AM 78.8 °F - 75.2 °F 89% 29.83 in 6.2 mi Calm Calm - N/A   Mostly Cloudy
3:00 AM 78.8 °F - 75.2 °F 89% 29.80 in 6.2 mi Calm Calm - N/A   Mostly Cloudy
4:00 AM 77.0 °F - 75.2 °F 94% 29.80 in 6.2 mi Calm Calm - N/A   Mostly Cloudy
5:00 AM 77 °F - - %  in 7 mi Calm Calm - -  
5:00 AM 77.0 °F - 75.2 °F 94% 29.80 in 6.2 mi Calm Calm - N/A   Mostly Cloudy
6:00 AM 77.0 °F - 75.2 °F 94% 29.83 in 6.2 mi Calm Calm - N/A   Mostly Cloudy
7:00 AM 80.6 °F 87.1 °F 77.0 °F 89% 29.86 in 6.2 mi Calm Calm - N/A   Mostly Cloudy
8:00 AM 84 °F - 76 °F 71% 29.89 in 7 mi ESE 12.7 mph - - Hail , Thunderstorm Heavy Thunderstorms with Hail
8:00 AM 82.4 °F 89.5 °F 75.2 °F 79% 29.89 in 6.2 mi ESE 12.7 mph - N/A   Mostly Cloudy
9:00 AM 82.4 °F 88.2 °F 73.4 °F 74% 29.89 in 3.7 mi SE 6.9 mph - N/A Rain Light Rain Showers
10:00 AM 77.0 °F - 75.2 °F 94% 29.92 in 1.2 mi ESE 11.5 mph - N/A Rain Rain Showers
10:28 AM 77.0 °F - 75.2 °F 94% 29.92 in 0.6 mi ESE 17.3 mph - N/A Rain , Thunderstorm Thunderstorms and Rain
11:00 AM 76 °F - 74 °F 91% 29.89 in 4 mi NNE 3.5 mph - - Rain , Thunderstorm Thunderstorms and Rain
11:00 AM 77.0 °F - 73.4 °F 89% 29.89 in 3.7 mi NNE 3.5 mph - N/A Thunderstorm Thunderstorm
11:25 AM 77.0 °F - 75.2 °F 94% 29.86 in 5.0 mi NE 5.8 mph - N/A   Scattered Clouds
12:00 PM 78.8 °F - 75.2 °F 89% 29.86 in 3.7 mi East 15.0 mph - N/A   Mostly Cloudy
1:00 PM 86.0 °F 96.9 °F 77.0 °F 74% 29.83 in 6.2 mi SE 6.9 mph - N/A   Mostly Cloudy
2:00 PM 88 °F - 77 °F 63% 29.82 in 7 mi ESE 10.4 mph - -   Partly Cloudy
2:00 PM 87.8 °F 99.7 °F 77.0 °F 70% 29.80 in 6.2 mi ESE 15.0 mph - N/A   Mostly Cloudy
3:00 PM 87.8 °F 99.7 °F 77.0 °F 70% 29.80 in 6.2 mi ESE 15.0 mph - N/A   Mostly Cloudy
4:00 PM 84.2 °F 96.1 °F 78.8 °F 84% 29.80 in 5.0 mi East 15.0 mph - N/A   Scattered Clouds
5:00 PM 83 °F - 78 °F 82% 29.85 in 4 mi Calm Calm - -   Mostly Cloudy
5:00 PM 82.4 °F 92.4 °F 78.8 °F 89% 29.83 in 3.7 mi Calm Calm - N/A   Scattered Clouds
6:00 PM 78.8 °F - 78.8 °F 100% 29.83 in 3.7 mi East 8.1 mph - N/A Rain Light Rain Showers
7:00 PM 78.8 °F - 77.0 °F 94% 29.86 in 5.0 mi East 12.7 mph - N/A   Scattered Clouds
8:00 PM 79 °F - 77 °F 90% 29.88 in 6 mi Calm Calm - -   Partly Cloudy
8:00 PM 78.8 °F - 77.0 °F 94% 29.86 in 5.0 mi Calm Calm - N/A   Mostly Cloudy
9:00 PM 78.8 °F - 77.0 °F 94% 29.89 in 3.7 mi Calm Calm - N/A   Mostly Cloudy
10:00 PM 78.8 °F - 75.2 °F 89% 29.89 in 3.7 mi ESE 8.1 mph - N/A Rain , Thunderstorm Light Thunderstorms and Rain
10:07 PM 78.8 °F - 75.2 °F 89% 29.89 in 2.2 mi ESE 11.5 mph - N/A Rain , Thunderstorm Light Thunderstorms and Rain
11:00 PM 78 °F - 76 °F 92% 29.88 in 3 mi East 15.0 mph - - Rain Light Rain
11:00 PM 78.8 °F - 77.0 °F 94% 29.86 in 3.1 mi East 15.0 mph - N/A Rain Light Rain